[[{"header":{"parameterUnit":"m.s-1","parameterCategory":1,"la1":30.2991,"la2":30.254,"lo1":-89.0895,"lo2":-89.0444,"dy":0.0017,"dx":0.0017,"nx":28,"ny":28,"refTime":"2023-04-17T21:00:00:Z","depth":0,"parameterNumber":2,"parameterNumberName":"U-component_of_WINDS"},"data":[0,0,0,0,0,0,0,0,0,0,0,0,0,0,0,0,0,0,0,0,0,0,0,0,0,0,0,0,0,0,0,0,0,0,0,0,0,0,0,0,0,0,0,0,0,0,0,0,0,0,0,0,0,0,0,0,0,0,-0.0604,-0.0605,0,-0.0667,-0.0668,-0.0668,-0.0692,-0.0692,-0.0692,-0.0692,-0.0757,-0.0758,-0.076,0,0,0,0,0,0,0,0,0,0,0,0,0,-0.0506,-0.0507,-0.0604,-0.0605,-0.0606,-0.0667,-0.0668,-0.0669,-0.0693,-0.0692,-0.0692,-0.0692,-0.0756,-0.0758,-0.076,0,0,0,0,0,0,0,0,0,0,0,0,0,-0.0556,-0.0508,-0.0604,-0.0625,-0.0627,-0.0667,-0.0668,-0.0669,-0.0693,-0.0692,-0.0692,-0.0692,-0.0755,-0.0758,-0.0761,-0.0784,0,0,-0.0769,-0.0771,0,0,0,0,0,0,0,0,-0.0553,-0.056,-0.0621,-0.0624,-0.0626,-0.0672,-0.0657,-0.0707,-0.0693,-0.0668,-0.0692,-0.0692,-0.0729,-0.0734,-0.0746,-0.0787,-0.079,-0.077,-0.0771,-0.0773,-0.0773,0,0,0,0,0,0,0,-0.055,-0.0557,-0.0629,-0.0622,-0.0625,-0.0632,-0.0638,-0.0666,-0.0699,-0.067,-0.0672,-0.0679,-0.073,-0.0743,-0.0748,-0.079,-0.077,-0.0772,-0.0774,-0.0775,-0.0854,-0.0854,0,0,0,0,0,0,-0.0543,-0.0554,-0.0627,-0.0631,-0.0589,-0.0633,-0.0641,-0.0657,-0.0699,-0.0705,-0.0679,-0.068,-0.0738,-0.0744,-0.075,-0.078,-0.0773,-0.0775,-0.0777,-0.0853,-0.0854,-0.0854,0,0,0,0,0,0,-0.0541,-0.0549,-0.0624,-0.0593,-0.0603,-0.0635,-0.0653,-0.0659,-0.0672,-0.0706,-0.0712,-0.0687,-0.0738,-0.0746,-0.0775,-0.0782,-0.0777,-0.0779,-0.0853,-0.0853,-0.0854,-0.0839,0,0,0,0,0,0,-0.0538,-0.0548,-0.0557,-0.0593,-0.0605,-0.0648,-0.0654,-0.066,-0.0677,-0.0678,-0.0714,-0.072,-0.0739,-0.0771,-0.0778,-0.0786,-0.0781,-0.0852,-0.0853,-0.0854,-0.0839,-0.084,-0.084,0,0,0,0,0,-0.0534,-0.055,-0.0557,-0.0566,-0.0616,-0.0649,-0.0655,-0.0677,-0.0677,-0.0687,-0.0708,-0.0719,-0.078,-0.0774,-0.0782,-0.0791,-0.0852,-0.0853,-0.0854,-0.0839,-0.0839,-0.084,0,0,0,0,0,0,-0.0514,-0.0555,-0.0564,-0.0592,-0.0617,-0.0653,-0.0665,-0.0676,-0.0701,-0.0702,-0.0727,-0.0735,-0.0762,-0.078,-0.0771,-0.0816,-0.0817,-0.082,-0.0803,-0.0804,-0.0804,-0.0799,-0.0784,0,0,0,0,0,-0.0513,-0.0536,-0.0571,-0.0592,-0.0604,-0.0633,-0.0647,-0.0662,-0.0688,-0.0699,-0.0723,-0.0748,-0.0773,-0.0789,-0.0815,-0.0842,-0.085,-0.0853,-0.0852,-0.0852,-0.0854,-0.0871,-0.0872,-0.0857,-0.0857,-0.0857,0,0,-0.0511,-0.0537,-0.0549,-0.0589,-0.061,-0.0633,-0.0641,-0.0665,-0.0683,-0.0703,-0.0732,-0.075,-0.078,-0.0809,-0.0823,-0.0824,-0.086,-0.0853,-0.0853,-0.0855,-0.0872,-0.0873,-0.0874,-0.0858,-0.0858,-0.0857,0,0,-0.052,-0.0541,-0.0561,-0.0582,-0.0614,-0.0632,-0.0637,-0.0672,-0.0685,-0.0714,-0.073,-0.0751,-0.0794,-0.0815,-0.0831,-0.0847,-0.0858,-0.0855,-0.0855,-0.0871,-0.0872,-0.0873,-0.0879,-0.0881,-0.0857,-0.0857,-0.0857,0,-0.0513,-0.0548,-0.0571,-0.0594,-0.0611,-0.063,-0.0652,-0.0671,-0.0709,-0.072,-0.0721,-0.0776,-0.0797,-0.0831,-0.0835,-0.0848,-0.0854,-0.0851,-0.087,-0.0871,-0.0873,-0.0879,-0.0881,-0.0856,-0.0856,-0.0856,-0.0856,0,-0.0539,-0.0563,-0.0576,-0.0612,-0.0631,-0.0653,-0.0679,-0.0695,-0.0708,-0.0727,-0.0757,-0.0783,-0.0814,-0.0823,-0.0836,-0.0859,-0.0859,-0.0865,-0.0867,-0.0873,-0.0879,-0.0882,-0.0855,-0.0855,-0.0856,-0.0856,0,0,-0.0537,-0.0585,-0.0589,-0.0606,-0.0642,-0.0661,-0.0685,-0.0715,-0.0728,-0.0754,-0.0774,-0.081,-0.0815,-0.0834,-0.0849,-0.0863,-0.0874,-0.0867,-0.0868,-0.0867,-0.0902,-0.0897,-0.09,-0.0881,-0.0882,-0.0882,-0.0899,0,-0.055,-0.0592,-0.0613,-0.0646,-0.0669,-0.0687,-0.0707,-0.0732,-0.075,-0.0772,-0.0792,-0.0817,-0.0822,-0.0834,-0.0848,-0.087,-0.0881,-0.0869,-0.0901,-0.0902,-0.0893,-0.0903,-0.0898,-0.0913,-0.0902,-0.0902,-0.0902,0,-0.0571,-0.0596,-0.0631,-0.0665,-0.0676,-0.0693,-0.0723,-0.0744,-0.0772,-0.0784,-0.0805,-0.082,-0.0845,-0.0845,-0.088,-0.0871,-0.0885,-0.0898,-0.0899,-0.0903,-0.0902,-0.0907,-0.0918,-0.092,-0.0906,-0.0906,-0.0906,0,-0.0565,-0.0608,-0.0635,-0.0649,-0.0689,-0.0701,-0.0718,-0.0746,-0.0763,-0.0789,-0.0801,-0.0829,-0.0844,-0.0866,-0.0888,-0.0886,-0.0922,-0.0923,-0.0933,-0.0932,-0.0939,-0.0939,-0.0953,-0.0948,-0.0948,-0.0948,-0.0948,0,-0.0578,-0.0599,-0.0633,-0.065,-0.0674,-0.0698,-0.0721,-0.074,-0.0765,-0.0785,-0.0803,-0.0822,-0.0851,-0.0873,-0.0891,-0.0917,-0.0924,-0.0935,-0.094,-0.0934,-0.0932,-0.0943,-0.0943,-0.0949,-0.0949,-0.0949,-0.0948,0,-0.0576,-0.06,-0.0631,-0.0666,-0.0676,-0.0692,-0.0722,-0.0739,-0.0758,-0.0784,-0.0792,-0.0821,-0.0849,-0.0873,-0.091,-0.0922,-0.0949,-0.0954,-0.0939,-0.0942,-0.095,-0.0949,-0.0972,-0.0976,-0.0968,-0.0968,-0.0968,0,-0.0582,-0.0599,-0.0636,-0.0651,-0.0668,-0.0692,-0.071,-0.0734,-0.0752,-0.0785,-0.0798,-0.0827,-0.0851,-0.0895,-0.092,-0.0948,-0.0954,-0.096,-0.0958,-0.0952,-0.0954,-0.0953,-0.0955,-0.096,-0.096,-0.096,-0.096,0,-0.0591,-0.0603,-0.0627,-0.0656,-0.0676,-0.07,-0.0724,-0.0735,-0.0764,-0.0783,-0.0811,-0.083,-0.0868,-0.0896,-0.0927,-0.0945,-0.0957,-0.096,-0.0964,-0.0958,-0.0949,-0.0954,-0.0939,-0.096,-0.096,-0.096,-0.096,-0.096,-0.0594,-0.061,-0.0639,-0.0665,-0.0686,-0.0709,-0.0726,-0.0748,-0.0772,-0.0804,-0.0817,-0.0846,-0.0874,-0.0917,-0.0935,-0.0958,-0.096,-0.0965,-0.0967,-0.0968,-0.0967,-0.0945,-0.0964,-0.0964,-0.0964,-0.0964,-0.0964,0,-0.0604,-0.0624,-0.0648,-0.0682,-0.0703,-0.0712,-0.074,-0.0757,-0.0782,-0.0807,-0.0831,-0.0864,-0.0892,-0.0919,-0.0948,-0.0962,-0.0968,-0.0969,-0.0968,-0.0972,-0.0963,-0.0957,-0.0963,-0.0963,-0.0963,-0.0963,-0.0963,-0.0963,-0.0612,-0.0639,-0.0654,-0.0692,-0.0711,-0.074,-0.0755,-0.0775,-0.0796,-0.0832,-0.0855,-0.0873,-0.0899,-0.093,-0.0956,-0.0964,-0.0974,-0.0972,-0.0981,-0.0973,-0.0972,-0.0972,-0.0967,-0.0974,-0.0974,-0.0988,-0.0988,-0.0988]},{"header":{"parameterUnit":"m.s-1","parameterCategory":1,"la1":30.2991,"la2":30.254,"lo1":-89.0895,"lo2":-89.0444,"dy":0.0017,"dx":0.0017,"nx":28,"ny":28,"refTime":"2023-04-17T21:00:00:Z","depth":0,"parameterNumber":3,"parameterNumberName":"V-component_of_WINDS"},"data":[0,0,0,0,0,0,0,0,0,0,0,0,0,0,0,0,0,0,0,0,0,0,0,0,0,0,0,0,0,0,0,0,0,0,0,0,0,0,0,0,0,0,0,0,0,0,0,0,0,0,0,0,0,0,0,0,0,0,-2.2635,-2.2636,0,-2.2754,-2.2755,-2.2757,-2.2755,-2.2753,-2.2752,-2.275,-2.2872,-2.2877,-2.2881,0,0,0,0,0,0,0,0,0,0,0,0,0,-2.2406,-2.241,-2.2634,-2.2636,-2.2638,-2.2754,-2.2755,-2.2757,-2.2755,-2.2753,-2.2751,-2.2749,-2.2871,-2.2876,-2.2882,0,0,0,0,0,0,0,0,0,0,0,0,0,-2.2513,-2.2411,-2.2634,-2.2651,-2.2653,-2.2753,-2.2755,-2.2757,-2.2756,-2.2753,-2.2751,-2.2748,-2.2869,-2.2876,-2.2883,-2.2974,0,0,-2.2904,-2.2907,0,0,0,0,0,0,0,0,-2.2507,-2.2521,-2.2647,-2.265,-2.2653,-2.2737,-2.2719,-2.283,-2.2756,-2.2717,-2.275,-2.2747,-2.2829,-2.2839,-2.2867,-2.298,-2.2985,-2.2905,-2.2909,-2.2912,-2.2914,0,0,0,0,0,0,0,-2.2499,-2.2516,-2.2682,-2.2649,-2.2652,-2.2652,-2.2665,-2.274,-2.2785,-2.272,-2.272,-2.2734,-2.283,-2.286,-2.287,-2.2987,-2.2905,-2.2911,-2.2915,-2.2918,-2.3182,-2.3185,0,0,0,0,0,0,-2.2488,-2.251,-2.2678,-2.2685,-2.2572,-2.2658,-2.2672,-2.2712,-2.2784,-2.2793,-2.2736,-2.2734,-2.2849,-2.2861,-2.2874,-2.2987,-2.2912,-2.2919,-2.2923,-2.318,-2.3183,-2.3186,0,0,0,0,0,0,-2.2484,-2.2504,-2.2673,-2.2598,-2.2619,-2.2665,-2.271,-2.2716,-2.2746,-2.2796,-2.2804,-2.2758,-2.2848,-2.2864,-2.295,-2.2991,-2.2922,-2.2929,-2.3176,-2.3181,-2.3184,-2.3213,0,0,0,0,0,0,-2.2477,-2.2502,-2.2537,-2.2599,-2.2623,-2.2747,-2.2712,-2.272,-2.2758,-2.2756,-2.2819,-2.2827,-2.2847,-2.2939,-2.2957,-2.3,-2.2934,-2.3173,-2.3178,-2.3183,-2.3208,-2.3217,-2.3225,0,0,0,0,0,-2.2469,-2.254,-2.2539,-2.2559,-2.2668,-2.2749,-2.2763,-2.2785,-2.2761,-2.2797,-2.283,-2.2825,-2.2984,-2.2948,-2.2968,-2.3013,-2.317,-2.3177,-2.3183,-2.3205,-2.3216,-2.3225,0,0,0,0,0,0,-2.2482,-2.2548,-2.2548,-2.2641,-2.2689,-2.2749,-2.2795,-2.2795,-2.2851,-2.2847,-2.2871,-2.2885,-2.2971,-2.3001,-2.296,-2.3106,-2.3074,-2.3085,-2.3084,-2.3095,-2.3103,-2.3094,-2.294,0,0,0,0,0,-2.2496,-2.2556,-2.261,-2.2687,-2.2712,-2.2749,-2.2785,-2.2797,-2.2848,-2.2869,-2.2908,-2.2958,-2.3019,-2.3058,-2.3117,-2.3212,-2.3227,-2.3254,-2.3262,-2.3269,-2.3278,-2.3331,-2.3344,-2.3206,-2.3206,-2.3206,0,0,-2.2525,-2.2568,-2.2605,-2.2691,-2.273,-2.2792,-2.2766,-2.2833,-2.2879,-2.2879,-2.2962,-2.2993,-2.305,-2.3141,-2.3183,-2.3168,-2.3319,-2.3277,-2.3282,-2.3287,-2.3339,-2.3352,-2.3364,-2.321,-2.321,-2.3209,0,0,-2.2609,-2.2648,-2.2717,-2.2757,-2.2816,-2.2841,-2.2857,-2.2917,-2.2937,-2.3021,-2.3022,-2.3078,-2.3182,-2.3223,-2.3258,-2.3358,-2.3357,-2.3377,-2.3421,-2.3473,-2.3484,-2.3493,-2.353,-2.3543,-2.3385,-2.3385,-2.3386,0,-2.2638,-2.2731,-2.2752,-2.2819,-2.2857,-2.286,-2.2931,-2.2968,-2.3044,-2.307,-2.3052,-2.3184,-2.3223,-2.3324,-2.3349,-2.3376,-2.3396,-2.337,-2.348,-2.349,-2.35,-2.3535,-2.3549,-2.3388,-2.3387,-2.3387,-2.3387,0,-2.2764,-2.2828,-2.2877,-2.295,-2.2994,-2.3062,-2.3094,-2.3135,-2.3144,-2.317,-2.3256,-2.3303,-2.3371,-2.3396,-2.3405,-2.3499,-2.3488,-2.3475,-2.3443,-2.3515,-2.3548,-2.3562,-2.3391,-2.339,-2.3389,-2.3389,0,0,-2.286,-2.2944,-2.2962,-2.2996,-2.3062,-2.3112,-2.3181,-2.3248,-2.3284,-2.3336,-2.3394,-2.3483,-2.3472,-2.3511,-2.3524,-2.357,-2.3648,-2.3551,-2.3553,-2.3568,-2.3755,-2.3765,-2.378,-2.3647,-2.3649,-2.3651,-2.3751,0,-2.2952,-2.3074,-2.3095,-2.3202,-2.3263,-2.3266,-2.3326,-2.3373,-2.34,-2.3455,-2.3484,-2.3547,-2.3527,-2.3551,-2.3596,-2.3628,-2.3686,-2.3621,-2.3702,-2.3704,-2.3688,-2.3798,-2.3809,-2.39,-2.3764,-2.3766,-2.3768,0,-2.3076,-2.3132,-2.3245,-2.3304,-2.333,-2.3383,-2.3447,-2.35,-2.3553,-2.3569,-2.3614,-2.3622,-2.3693,-2.3658,-2.3757,-2.3713,-2.3747,-2.3768,-2.3772,-2.3781,-2.3741,-2.3811,-2.393,-2.3944,-2.3788,-2.3787,-2.3785,0,-2.3137,-2.324,-2.3321,-2.3349,-2.3419,-2.3457,-2.3488,-2.3539,-2.3579,-2.3635,-2.3661,-2.3724,-2.3759,-2.3807,-2.3833,-2.3804,-2.3931,-2.3897,-2.3947,-2.3946,-2.3974,-2.3972,-2.4101,-2.3994,-2.3994,-2.3994,-2.3993,0,-2.3238,-2.3307,-2.3349,-2.3399,-2.3476,-2.35,-2.3576,-2.3607,-2.3652,-2.3708,-2.3715,-2.3768,-2.3798,-2.3855,-2.3875,-2.3954,-2.397,-2.3985,-2.399,-2.3985,-2.3983,-2.4008,-2.4003,-2.3997,-2.3996,-2.3996,-2.3995,0,-2.3318,-2.3349,-2.3438,-2.3497,-2.3514,-2.3569,-2.3619,-2.3668,-2.3694,-2.3766,-2.3784,-2.3825,-2.3893,-2.3922,-2.4005,-2.4019,-2.411,-2.411,-2.4092,-2.4094,-2.4142,-2.4138,-2.4293,-2.4315,-2.4193,-2.4194,-2.4195,0,-2.3382,-2.3435,-2.35,-2.3538,-2.357,-2.3632,-2.3672,-2.3697,-2.3739,-2.3805,-2.3846,-2.3913,-2.3969,-2.4077,-2.4114,-2.4178,-2.418,-2.423,-2.419,-2.4184,-2.4182,-2.4179,-2.4185,-2.4237,-2.4239,-2.424,-2.424,0,-2.3491,-2.3503,-2.3561,-2.3625,-2.3673,-2.3724,-2.3775,-2.3805,-2.3839,-2.3885,-2.3955,-2.3998,-2.4083,-2.415,-2.4217,-2.4249,-2.4251,-2.4253,-2.4268,-2.4264,-2.4252,-2.426,-2.4113,-2.4249,-2.4248,-2.4248,-2.4247,-2.4247,-2.3565,-2.3613,-2.3667,-2.3731,-2.3772,-2.3818,-2.3868,-2.39,-2.3958,-2.403,-2.4041,-2.4115,-2.4168,-2.4257,-2.4292,-2.435,-2.4338,-2.436,-2.4365,-2.4371,-2.4374,-2.4242,-2.4362,-2.4362,-2.4362,-2.4362,-2.4362,0,-2.3675,-2.371,-2.3769,-2.3839,-2.389,-2.3887,-2.3943,-2.3986,-2.4051,-2.41,-2.4155,-2.4235,-2.4301,-2.4343,-2.441,-2.4448,-2.4451,-2.4465,-2.4463,-2.447,-2.4381,-2.4361,-2.4462,-2.4462,-2.4462,-2.4462,-2.4462,-2.4462,-2.3739,-2.382,-2.3839,-2.3941,-2.3975,-2.4048,-2.408,-2.4123,-2.4163,-2.4252,-2.4306,-2.4334,-2.4381,-2.4451,-2.4511,-2.4522,-2.4546,-2.4561,-2.4572,-2.4487,-2.4477,-2.4467,-2.4449,-2.4566,-2.4566,-2.4657,-2.4658,-2.4658]}]]